DateTimeUTC,F1_A11,F1_S11,BsB_S11,BsG_S11,BsR_S11,BbsB_S11,BbsG_S11,BbsR_S11,BaB_A11,BaG_A11,BaR_A11,Tu_S11,T_S11,Uu_S11,U_S11,P_S11,T1_A11
2021-02-05T07:00:00Z,00000200,21000000,,,,,,,-000.63,-000.56,-000.36,16.3,23.8,,00.0,0637.0,30.9
2021-02-05T07:01:00Z,00000200,21000000,,,,,,,0000.14,0000.39,-000.14,16.3,23.8,,00.0,0637.0,30.9
2021-02-05T07:02:00Z,00000200,21000000,,,,,,,-000.00,0000.02,0000.36,16.3,23.8,,00.0,0637.0,30.9
2021-02-05T07:03:00Z,00000200,61000000,,,,,,,-000.37,-000.39,-000.24,16.3,23.9,,00.0,0637.0,30.9
2021-02-05T07:04:00Z,00000200,41000000,0000.06,0000.32,0000.17,0000.15,0000.16,-000.20,0000.31,0000.18,0000.31,16.7,23.7,,00.0,0637.9,30.9
2021-02-05T07:05:00Z,00000200,01000000,0000.13,-000.01,0000.14,0000.23,0000.18,0000.24,-000.01,0000.32,-000.26,16.8,23.7,,00.0,0638.0,30.9
2021-02-05T07:06:00Z,00000200,01000000,-000.12,0000.15,0000.08,0000.81,0000.18,0000.06,0000.07,-000.14,0000.14,16.8,23.7,,00.0,0638.0,31.0
2021-02-05T07:07:00Z,00000200,01000000,0000.29,0000.16,-000.06,-000.09,-000.10,-000.18,0000.13,0000.14,-000.12,16.7,23.7,,00.0,0638.0,30.9
2021-02-05T07:08:00Z,00000200,01000000,-000.36,0000.12,0000.15,0000.20,-000.06,-000.16,0000.33,0000.33,0000.57,16.7,23.6,,00.0,0638.0,30.9
2021-02-05T07:09:00Z,00000200,01000000,-000.01,0000.14,0000.25,-000.39,0000.07,-000.03,-000.35,-000.20,-000.30,16.7,23.6,,00.0,0638.0,30.9
2021-02-05T07:10:00Z,00000200,01000000,0000.14,0000.35,-000.03,-000.16,0000.08,-000.14,0000.10,0000.24,-000.12,16.7,23.6,,00.0,0638.1,30.9
2021-02-05T07:11:00Z,00000200,01000000,-000.19,0000.07,0000.17,0000.21,0000.28,-000.14,-000.05,-000.27,0000.03,16.6,23.6,,00.0,0638.1,30.9
2021-02-05T07:12:00Z,00000200,01000000,0000.74,0000.01,0000.12,0000.18,0000.16,0000.15,-000.45,-000.45,-000.18,16.6,23.6,,00.0,0638.2,30.9
2021-02-05T07:13:00Z,00000200,01000000,0000.54,-000.02,0000.08,-000.18,0000.22,0000.16,0000.19,0000.32,0000.59,16.6,23.5,,00.0,0638.2,30.9
2021-02-05T07:14:00Z,00000200,01000000,0000.15,0000.33,0000.06,0000.70,0000.14,-000.08,0000.37,0000.01,-000.22,16.6,23.5,,00.0,0638.2,30.9
2021-02-05T07:15:00Z,00000200,01000000,0000.42,-000.19,0000.30,-000.14,0000.06,0000.06,-000.32,-000.06,-000.32,16.6,23.5,,00.0,0638.2,30.9
2021-02-05T07:16:00Z,00000200,01000000,0000.25,0000.07,0000.15,-000.21,0000.02,-000.21,0000.46,0000.24,0000.47,16.6,23.5,,00.0,0638.2,30.9
2021-02-05T07:17:00Z,00000200,01000000,-000.18,-000.23,0000.20,-000.21,-000.07,0000.30,0000.14,0000.46,0000.03,16.7,23.5,,00.0,0638.2,30.9
2021-02-05T07:18:00Z,00000200,01000000,0000.11,0000.10,0000.10,-000.08,-000.04,0000.05,-000.17,0000.01,-000.02,16.8,23.6,,00.0,0638.2,31.0
2021-02-05T07:19:00Z,00000200,01000000,-000.03,0000.06,0000.24,0000.12,-000.12,0000.16,0000.45,0000.02,0000.31,16.8,23.6,,00.0,0638.2,31.0
2021-02-05T07:20:00Z,00000200,01000000,0000.28,-000.01,-000.01,-000.02,-000.01,-000.14,-000.08,0000.14,0000.26,16.9,23.6,,00.0,0638.2,31.0
2021-02-05T07:21:00Z,00000200,01000000,0000.82,0000.18,0000.13,-000.42,0000.22,0000.37,0000.77,0000.38,0000.23,16.9,23.7,,00.0,0638.2,31.0
2021-02-05T07:22:00Z,00000200,01000000,0000.15,0000.34,0000.34,-000.28,-000.00,0000.11,-000.31,-000.04,-000.19,16.9,23.7,,00.0,0638.2,30.9
2021-02-05T07:23:00Z,00000200,01000000,-000.54,0000.27,-000.05,-000.35,0000.18,0000.18,0000.26,-000.06,0000.08,16.9,23.6,,00.0,0638.1,30.9
2021-02-05T07:24:00Z,00000200,01000000,0000.21,0000.19,0000.27,0000.52,0000.27,0000.11,-000.06,0000.29,-000.29,16.8,23.6,,00.0,0638.2,30.9
2021-02-05T07:25:00Z,00000200,01000000,-000.13,0000.01,0000.19,0000.08,0000.18,0000.31,-000.21,-000.32,-000.03,16.8,23.6,,00.0,0638.3,30.9
2021-02-05T07:26:00Z,00000200,01000000,0000.54,0000.19,0000.07,0000.02,-000.02,0000.11,-000.54,-000.56,0000.07,16.7,23.6,,00.0,0638.3,30.9
2021-02-05T07:27:00Z,00000200,01000000,0000.29,-000.06,-000.02,-000.39,0000.08,0000.03,0000.28,0000.17,-000.10,16.7,23.6,,00.0,0638.4,30.9
2021-02-05T07:28:00Z,00000200,01000000,0000.71,-000.10,0000.24,0000.06,0000.17,0000.36,-000.14,-000.07,-000.12,16.7,23.5,,00.0,0638.4,30.9
2021-02-05T07:29:00Z,00000200,01000000,0000.30,0000.15,0000.13,-000.25,-000.05,0000.01,-000.09,0000.17,0000.17,16.7,23.5,,00.0,0638.4,30.9
2021-02-05T07:30:00Z,00000200,01000000,-000.21,0000.13,0000.23,-000.01,-000.02,0000.20,-000.03,-000.51,-000.40,16.6,23.5,,00.0,0638.4,30.9
2021-02-05T07:31:00Z,00000200,01000000,0000.30,0000.43,-000.00,-000.32,0000.23,0000.38,0000.02,0000.35,0000.53,16.7,23.5,,00.0,0638.4,30.9
2021-02-05T07:32:00Z,00000200,01000000,0000.39,0000.16,0000.14,-000.25,-000.15,0000.30,0000.27,0000.18,-000.23,16.7,23.5,,00.0,0638.4,30.9
2021-02-05T07:33:00Z,00000200,01000000,-000.04,-000.03,-000.01,-000.08,0000.13,-000.21,0000.33,0000.51,0000.29,16.7,23.6,,00.0,0638.3,30.9
2021-02-05T07:34:00Z,00000200,01000000,-000.24,0000.14,0000.04,-000.39,0000.01,-000.43,0000.37,-000.11,0000.01,16.7,23.5,,00.0,0638.3,30.9
2021-02-05T07:35:00Z,00000200,01000000,-000.28,0000.26,0000.10,0000.32,0000.04,0000.25,-000.46,0000.49,0000.25,16.7,23.5,,00.0,0638.4,30.9
2021-02-05T07:36:00Z,00000200,01000000,0000.08,0000.22,-000.05,-000.13,0000.23,0000.00,0000.39,-000.53,0000.19,16.7,23.6,,00.0,0638.4,30.9
2021-02-05T07:37:00Z,00000200,01000000,0000.16,0000.33,0000.06,0000.17,0000.06,0000.10,-000.38,-000.16,-000.54,16.7,23.5,,00.0,0638.4,30.9
2021-02-05T07:38:00Z,00000200,01010000,0000.06,0000.12,0000.15,-000.29,0000.05,-000.14,-000.12,0000.36,0000.09,16.6,23.5,,00.0,0638.5,30.9
2021-02-05T07:39:00Z,00000200,01000000,0000.09,0000.26,0000.14,-000.09,0000.06,0000.08,0000.07,-000.15,0000.20,16.6,23.5,,00.0,0638.5,30.9
2021-02-05T07:40:00Z,00000200,01000000,-000.28,0000.17,0000.20,-000.19,-000.07,-000.03,0000.19,0000.26,-000.01,16.6,23.5,,00.0,0638.5,30.9
2021-02-05T07:41:00Z,00000200,01000000,0000.52,-000.17,0000.23,-000.17,0000.04,-000.09,0000.40,-000.11,0000.14,16.6,23.5,,00.0,0638.5,30.9
2021-02-05T07:42:00Z,00000200,01000000,-000.34,0000.21,0000.22,-000.07,0000.03,-000.17,0000.28,0000.31,0000.10,16.5,23.5,,00.0,0638.5,30.9
2021-02-05T07:43:00Z,00000200,01000000,0000.71,0000.43,0000.02,-000.26,0000.13,-000.23,-000.10,0000.29,-000.21,16.5,23.4,,00.0,0638.5,30.9
2021-02-05T07:44:00Z,00000200,01000000,0000.14,0000.04,0000.04,0000.07,-000.03,-000.00,0000.14,-000.22,0000.57,16.5,23.4,,00.0,0638.5,30.9
2021-02-05T07:45:00Z,00000200,01000000,0000.03,0000.24,-000.13,-000.44,0000.30,0000.01,0000.29,-000.08,0000.03,16.5,23.4,,00.0,0638.5,30.9
2021-02-05T07:46:00Z,00000200,01000000,0000.14,-000.06,-000.08,-000.10,-000.01,-000.10,0000.07,0000.59,0000.49,16.5,23.4,,00.0,0638.5,30.9
2021-02-05T07:47:00Z,00000200,01000000,-000.16,0000.09,0000.03,0000.15,-000.04,-000.03,0000.40,0000.63,0000.10,16.6,23.4,,00.0,0638.5,30.9
2021-02-05T07:48:00Z,00000200,01000000,-000.36,0000.28,0000.08,-000.09,0000.18,-000.00,0000.29,-000.00,-000.17,16.7,23.5,,00.0,0638.5,30.9
2021-02-05T07:49:00Z,00000200,01000000,-000.29,0000.16,0000.14,-000.27,-000.10,0000.36,-000.09,-000.23,0000.05,16.8,23.5,,00.0,0638.5,30.9
2021-02-05T07:50:00Z,00000200,01000000,-000.33,0000.26,-000.06,0000.00,-000.10,0000.21,-000.03,0000.23,0000.05,16.8,23.5,,00.0,0638.5,30.9
2021-02-05T07:51:00Z,00000200,01000000,0000.31,0000.04,0000.41,-000.19,0000.02,-000.09,0000.13,-000.17,0000.15,16.8,23.5,,00.0,0638.6,30.9
2021-02-05T07:52:00Z,00000200,01000000,0000.33,0000.13,0000.19,0000.18,0000.07,-000.00,-000.24,-000.20,-000.58,16.8,23.5,,00.0,0638.7,30.9
2021-02-05T07:53:00Z,00000200,01000000,0000.20,0000.17,-000.03,-000.40,0000.16,-000.02,0000.02,0000.17,0000.24,16.7,23.5,,00.0,0638.7,30.9
2021-02-05T07:54:00Z,00000200,01000000,0000.24,0000.15,0000.02,0000.19,-000.29,-000.03,-000.16,-000.44,0000.17,16.7,23.5,,00.0,0638.7,30.9
2021-02-05T07:55:00Z,00000200,01000000,-000.07,-000.04,0000.24,-000.35,0000.01,0000.13,-000.16,0000.36,-000.13,16.7,23.5,,00.0,0638.8,30.9
2021-02-05T07:56:00Z,00000200,01000000,0000.84,-000.12,-000.13,-000.19,-000.07,0000.06,-000.09,-000.37,-000.10,16.7,23.5,,00.0,0638.8,30.9
2021-02-05T07:57:00Z,00000200,41000000,,,,,,,0000.68,0000.87,0000.57,16.7,23.5,,00.0,0638.7,30.9
2021-02-05T07:58:00Z,00000200,61000000,,,,,,,-000.27,-000.55,-000.41,16.2,23.6,,00.0,0637.9,30.9
2021-02-05T07:59:00Z,00000200,21000000,,,,,,,0000.00,0000.07,0000.00,16.2,23.7,,00.0,0637.9,30.9
